Location: K�ln
(50.9455°N, 6.9544°E)
Time: 12:35:46
(UTC+01:00)

ISS - Pass Details

Date: 11 November 2017
Orbit: 402 x 407 km, 51.6° (Epoch: 21 November)

Event Time Altitude Azimuth Distance (km) Brightness Sun altitude
Exits shadow 06:42:56 14° 278° (W) 1,260 -2.0 -9.4°
Maximum altitude 06:45:37 52° 203° (SSW) 507 -3.4 -9.0°
Drops below altitude 10° 06:48:48 10° 126° (SE) 1,453 0.3 -8.5°
Sets 06:50:54 0° 121° (ESE) 2,310 1.9 -8.2°
